Regional Weather Roundup
Issued by NWS

Home | Current Version | Previous Version | Text Only | Print | Product List | Glossary Off
Versions: 1 2 3 4 5 6 7 8 9 10 11 12 13 14 15 16 17 18 19 20 21 22 23 24 25 26 27 28 29 30 31 32 33 34 35 36 37 38 39 40 41 42 43 44 45 46 47 48 49 50

514
ASUS45 KSLC 062310
RWRUT

UTAH REGIONAL WEATHER ROUNDUP
NATIONAL WEATHER SERVICE SALT LAKE CITY UT
400 PM MST TUE DEC 06 2016

UTZ001>011-023>025-070000-

NORTHERN UTAH

CITY           SKY/WX    TMP DP  RH WIND       PRES   REMARKS
BRIGHAM CITY     N/A     30  13  49 CALM      29.81R
HILL AFB       NOT AVBL
LOGAN          MOCLDY    25  15  66 SE3       29.80R
OGDEN          CLOUDY    28   9  44 SE3       29.80R
SALT LAKE CITY CLOUDY    28  19  69 SE7       29.82R WCI  21
TOOELE VALLEY  CLOUDY    30  19  64 N8        29.82R WCI  23
WENDOVER       MOCLDY    34  14  44 NW21      29.83R WCI  22
HEBER CITY     CLOUDY    28  16  59 N9        29.72R WCI  20
WEST JORDAN    CLOUDY    26  23  89 CALM      29.81S

$$

UTZ011>015-024>027-070000-

CENTRAL/NORTHEAST UTAH

CITY           SKY/WX    TMP DP  RH WIND       PRES   REMARKS
PROVO AIRPORT  MOCLDY    30  19  64 NW17G23   29.79R WCI  18
MOAB/CANYONLAN CLEAR     38   5  25 CALM      29.67F
DELTA          CLEAR     34   7  32 N14       29.74R WCI  24
PRICE          CLEAR     31   5  33 SE5       29.66S WCI  26
RICHFIELD      PTCLDY    46   7  19 SW17G30   29.65S
ROOSEVELT      CLOUDY    30  -4  22 CALM      29.73R
VERNAL         CLOUDY    29  -4  24 CALM      29.70S

$$

UTZ013>016-019>022-027-070000-

SOUTHERN UTAH

CITY           SKY/WX    TMP DP  RH WIND       PRES   REMARKS
BRYCE CANYON   SUNNY     35  12  38 W23G31    29.71S WCI  23
CEDAR CITY     SUNNY     44  13  28 SW15G25   29.71S
MILFORD        SUNNY     50   0  12 SW14G24   29.65R
ST GEORGE      CLOUDY    55  19  24 W3        29.77S
HANKSVILLE     CLEAR     37   5  25 CALM      29.70F
KANAB          SUNNY     50  14  23 SW17      29.78S
BLANDING       CLEAR     43  15  31 SW10      29.78S

$$

REGIONAL REPORTS     COLORADO/ARIZONA

CITY           SKY/WX    TMP DP  RH WIND       PRES   REMARKS
CRAIG, CO      CLOUDY    27   8  44 E8        29.68F WCI  19
GRAND JUNCTION CLEAR     33   8  35 CALM      29.69F
RIFLE, CO      CLOUDY    30  10  43 CALM      29.68F
MONTROSE, CO   CLOUDY    38  13  35 N5        29.68F WCI  34
CORTEZ, CO     PTCLDY    44  19  36 S13       29.74S
COLORADO CITY    N/A     52  19  28 SW15G21   29.79S
PAGE, AZ       SUNNY     56   9  15 SW5       29.70F
GRAND CANYON   SUNNY     43  19  38 SW15G22   29.83R
KINGMAN, AZ    MOSUNNY   56  14  19 SW20G26   29.82S
FLAGSTAFF, AZ  MOSUNNY   40  23  50 SW24G32   29.83F WCI  29

$$

REGIONAL REPORTS    NEVADA/IDAHO/WYOMING

CITY           SKY/WX    TMP DP  RH WIND       PRES   REMARKS
LAS VEGAS, NV  MOSUNNY   62  17  17 CALM      29.74F
ELY, NY        SUNNY     33  10  38 NW21G29   29.76R WCI  21
ELKO, NV       CLOUDY    29  18  63 NW7       29.84R WCI  22
POCATELLO, ID  SNOW      20  16  84 NE6       29.83R VSB 1/2 WCI  12
BURLEY, ID     CLOUDY    22  18  85 W5        29.85R WCI  16
FORT BRIDGER,  LGT SNOW   6   3  86 CALM      29.75R VSB 1
EVANSTON, WY   CLOUDY    10   4  76 E8        29.70R WCI  -2
ROCK SPRINGS,  CLOUDY    16  -1  47 VRB3      29.71R

$$




USA.gov is the U.S. government's official web portal to all federal, state and local government web resources and services.